Regional Weather Roundup
Issued by NWS

Home | Current Version | Previous Version | Graphics & Text | Print | Product List | Glossary Off
Versions: 1 2 3 4 5 6 7 8 9 10 11 12 13 14 15 16 17 18 19 20 21 22 23 24 25 26 27 28 29 30 31 32 33 34 35 36 37 38 39 40 41 42 43 44 45 46 47 48 49 50

000
ASUS43 KDMX 010807
RWRIA

WEATHER ROUNDUP FOR IOWA
NATIONAL WEATHER SERVICE DES MOINES IA
300 AM CDT FRI AUG 01 2014

NOTE: "FAIR" INDICATES FEW OR NO CLOUDS BELOW 12,000 FEET WITH NO
SIGNIFICANT WEATHER AND/OR OBSTRUCTIONS TO VISIBILITY.

* - THESE STATIONS ARE NOT NWS STATIONS...THUS NOT UNDER NWS
QUALITY CONTROL.  THEY ALSO DO NOT REPORT WEATHER SUCH
AS PRECIPITATION OR FOG.

IAZ001>003-012>014-020>022-031>034-043>046-010900-
   NORTHWEST IOWA

CITY           SKY/WX    TMP DP  RH WIND       PRES   REMARKS
CARROLL *      PTCLDY    59  57  94 CALM      30.07S
CHEROKEE *     CLOUDY    57  57 100 CALM      30.08S
DENISON *      CLEAR     59  59 100 CALM      30.06F FOG
LE MARS *      CLEAR     55  55 100 CALM      30.08S
ORANGE CITY *  CLEAR     61  57  88 CALM      30.08S
SHELDON *      CLEAR     55  54  94 CALM      30.07S
SIOUX CITY     CLEAR     60  58  92 E3        30.06F
SPENCER        CLEAR     56  54  93 S5        30.07S
STORM LAKE *   PTCLDY    59  59 100 SW6       30.09S
$$

IAZ055>058-069>071-079>083-090>094-010900-
   SOUTHWEST IOWA

CITY           SKY/WX    TMP DP  RH WIND       PRES   REMARKS
ATLANTIC *     DRIZZLE   64  63  94 SW5       30.09R
AUDUBON *      PTCLDY    64  61  88 CALM      30.09S
CLARINDA *     HVY RAIN  66  64  94 NW5       30.11R
COUNCIL BLFS * LGT RAIN  66  64  94 E5        30.07F
CRESTON *      CLOUDY    64  61  88 CALM      30.09R
HARLAN  *      CLOUDY    64  63  94 S6        30.11S
LAMONI         MOCLDY    64  61  90 W5        30.08R
RED OAK *      CLOUDY    64  63  94 CALM      30.09F
SHENANDOAH *   MOCLDY    66  64  94 E6        30.09S
$$

IAZ047>049-059>061-072>074-084-010900-
   CENTRAL IOWA

CITY           SKY/WX    TMP DP  RH WIND       PRES   REMARKS
AMES           CLEAR     56  55  97 CALM      30.06S
ANKENY *       FOG       55  55 100 CALM      30.06S VSB 1
CHARITON *     MOCLDY    64  61  88 CALM      30.07S
DES MOINES     PTCLDY    64  60  87 CALM      30.06R
GRINNELL*      CLEAR     61  57  88 N3        30.06S
KNOXVILLE *    MOCLDY    64  61  88 CALM      30.05S
MARSHALLTOWN   CLEAR     59  57  93 N3        30.05F
PELLA *        PTCLDY    63  61  94 CALM      30.07S
PERRY *          N/A     59  57  94 CALM      30.06F
$$

IAZ004>006-015-016-023>025-035-036-010900-
   NORTH CENTRAL IOWA

CITY           SKY/WX    TMP DP  RH WIND       PRES   REMARKS
ALGONA *       CLEAR     61  59  94 W5        30.07S
CLARION *      PTCLDY    57  57 100 CALM      30.06F
ESTHERVILLE    CLEAR     58  56  93 SW3       30.06S
FORT DODGE *   CLOUDY    57  55  94 CALM      30.07S VSB 1/2
MASON CITY     CLEAR     60  58  92 W6        30.08R
FOREST CITY *  CLEAR     57  57 100 CALM      30.06S FOG
IOWA FALLS *     N/A     57  55  94 CALM      30.07S
$$

IAZ007>011-017>019-026>030-037>042-050>054-066-010900-
   NORTHEAST IOWA

CITY           SKY/WX    TMP DP  RH WIND       PRES   REMARKS
CEDAR RAPIDS   CLEAR     62  60  93 CALM      30.05S
CHARLES CITY * CLEAR     57  55  94 W3        30.06S
CLINTON *      PTCLDY    63  59  88 CALM      30.08S
DECORAH *      PTCLDY    61  55  82 CALM      30.05S
DUBUQUE        CLEAR     59  57  93 CALM      30.06S
MONTICELLO *   PTCLDY    57  57 100 CALM      30.05S
OELWEIN *      CLEAR     57  55  94 CALM      30.07S
WATERLOO       CLEAR     59  57  93 CALM      30.04F
$$

IAZ064-065-067-068-078-010900-
   EAST CENTRAL IOWA

CITY           SKY/WX    TMP DP  RH WIND       PRES   REMARKS
DAVENPORT      MOCLDY    66  61  84 S3        30.06S
IOWA CITY      PTCLDY    62  60  93 CALM      30.06S
MT. PLEASANT * MOCLDY    64  63  94 CALM      30.07R
MUSCATINE *    CLOUDY    66  63  88 CALM      30.05F
QUAD CITIES    MOCLDY    67  61  81 CALM      30.05S
$$

IAZ062-063-075>077-085>089-095>099-010900-
   SOUTHEAST IOWA

CITY           SKY/WX    TMP DP  RH WIND       PRES   REMARKS
BURLINGTON     MOCLDY    68  64  87 CALM      30.06S
FAIRFIELD *    PTCLDY    63  61  94 CALM      30.06S
FORT MADISON * CLEAR     66  63  88 CALM      30.07S
KEOKUK *       CLEAR     64  63  94 CALM      30.05S
OSKALOOSA *      N/A     64  61  88 CALM      30.06S
CENTERVILLE *  CLEAR     61  61 100 CALM      30.08S
OTTUMWA        MOCLDY    64  61  90 CALM      30.05F
WASHINGTON *   MOCLDY    66  64  94 SW5       30.06S
$$

ABBREVIATIONS USED IN REMARKS
   TC - TEMPERATURES IN CELSIUS
  WCI - WIND CHILL INDEX
   HX - HEAT INDEX
  VSB - VISIBILITY
$$



USA.gov is the U.S. government's official web portal to all federal, state and local government web resources and services.